Radiation Dose at Monitoring Post of Fukushima Daini Nuclear Power Station
Date,Time,MP-1(microSv/h),MP-2(microSv/h),MP-3(microSv/h),MP-4(microSv/h),MP-5(microSv/h),MP-6(microSv/h),MP-7(microSv/h),Wind Direction,Wind Velocity(m/s),Rain
2017/04/06,00:00,0.380,0.230,0.391,0.364,0.332,0.193,0.164,west,1.9,No
2017/04/06,00:10,0.383,0.231,0.393,0.364,0.331,0.191,0.164,west-southwest,2.5,No
2017/04/06,00:20,0.380,0.231,0.392,0.364,0.331,0.192,0.164,southwest,1.2,No
2017/04/06,00:30,0.380,0.229,0.391,0.366,0.331,0.192,0.164,west-southwest,1.0,No
2017/04/06,00:40,0.380,0.231,0.393,0.363,0.330,0.192,0.163,southwest,1.7,No
2017/04/06,00:50,0.379,0.231,0.392,0.366,0.333,0.192,0.164,south-southwest,1.6,No
2017/04/06,01:00,0.381,0.231,0.393,0.362,0.330,0.192,0.165,south-southwest,2.5,No
2017/04/06,01:10,0.381,0.231,0.392,0.364,0.333,0.192,0.164,south-southwest,4.5,No
2017/04/06,01:20,0.380,0.230,0.393,0.366,0.331,0.191,0.164,south-southwest,5.3,No
2017/04/06,01:30,0.381,0.231,0.393,0.364,0.331,0.192,0.164,southwest,4.7,No
2017/04/06,01:40,0.380,0.231,0.394,0.365,0.332,0.192,0.163,southwest,4.6,No
2017/04/06,01:50,0.380,0.230,0.392,0.364,0.329,0.192,0.162,south-southwest,3.8,No
2017/04/06,02:00,0.380,0.232,0.393,0.365,0.332,0.192,0.163,southwest,1.5,No
2017/04/06,02:10,0.380,0.232,0.392,0.366,0.331,0.193,0.164,south-southwest,2.5,No
2017/04/06,02:20,0.381,0.230,0.392,0.363,0.332,0.193,0.164,southwest,2.8,No
2017/04/06,02:30,0.382,0.232,0.394,0.365,0.333,0.191,0.164,southwest,3.3,No
2017/04/06,02:40,0.379,0.231,0.393,0.365,0.330,0.193,0.163,south-southwest,3.9,No
2017/04/06,02:50,0.380,0.231,0.393,0.365,0.334,0.193,0.165,south-southwest,4.9,No
2017/04/06,03:00,0.380,0.232,0.394,0.365,0.332,0.193,0.164,south-southwest,5.3,No
2017/04/06,03:10,0.380,0.230,0.393,0.365,0.330,0.192,0.165,south-southwest,5.2,No
2017/04/06,03:20,0.381,0.230,0.395,0.364,0.334,0.192,0.165,south-southwest,4.9,No
2017/04/06,03:30,0.380,0.233,0.393,0.366,0.331,0.193,0.163,south-southwest,5.1,No
2017/04/06,03:40,0.380,0.231,0.392,0.365,0.333,0.193,0.163,south-southwest,4.5,No
2017/04/06,03:50,0.381,0.232,0.394,0.364,0.334,0.192,0.164,south-southwest,5.1,No
2017/04/06,04:00,0.380,0.231,0.395,0.364,0.331,0.193,0.163,south,4.2,No
2017/04/06,04:10,0.379,0.233,0.393,0.366,0.333,0.193,0.164,south-southwest,7.1,No
2017/04/06,04:20,0.381,0.232,0.394,0.365,0.334,0.194,0.163,south-southwest,7.7,No
2017/04/06,04:30,0.380,0.232,0.394,0.366,0.331,0.192,0.163,south-southwest,7.6,No
2017/04/06,04:40,0.380,0.231,0.392,0.365,0.333,0.193,0.164,south-southwest,8.3,No
2017/04/06,04:50,0.380,0.232,0.395,0.365,0.333,0.192,0.164,south-southwest,8.4,No
2017/04/06,05:00,0.382,0.232,0.394,0.367,0.332,0.193,0.164,south-southwest,6.7,No
2017/04/06,05:10,0.382,0.231,0.394,0.365,0.334,0.193,0.165,south-southwest,7.2,No
2017/04/06,05:20,0.381,0.231,0.394,0.364,0.333,0.193,0.164,south-southwest,8.6,No
2017/04/06,05:30,0.383,0.231,0.393,0.366,0.332,0.192,0.164,south-southwest,9.3,No
2017/04/06,05:40,0.381,0.231,0.394,0.365,0.335,0.193,0.164,south-southwest,10.5,No
2017/04/06,05:50,0.380,0.231,0.393,0.365,0.333,0.193,0.164,south-southwest,10.1,No
2017/04/06,06:00,0.381,0.231,0.395,0.365,0.333,0.191,0.164,south-southwest,9.9,No
2017/04/06,06:10,0.380,0.230,0.394,0.363,0.333,0.193,0.163,south-southwest,10.8,No
2017/04/06,06:20,0.380,0.231,0.393,0.363,0.333,0.192,0.164,south-southwest,10.2,No
2017/04/06,06:30,0.381,0.230,0.395,0.367,0.331,0.192,0.163,south-southwest,8.9,No
2017/04/06,06:40,0.380,0.231,0.392,0.363,0.333,0.193,0.162,south-southwest,8.2,No
2017/04/06,06:50,0.379,0.232,0.393,0.365,0.330,0.193,0.163,south-southwest,8.5,No
2017/04/06,07:00,0.380,0.232,0.394,0.363,0.332,0.192,0.162,south-southwest,7.5,No
2017/04/06,07:10,0.380,0.230,0.392,0.364,0.332,0.193,0.164,south-southwest,8.6,No
2017/04/06,07:20,0.380,0.230,0.393,0.363,0.330,0.191,0.162,south,9.5,No
2017/04/06,07:30,0.382,0.230,0.393,0.362,0.332,0.192,0.163,south,10.0,No
2017/04/06,07:40,0.379,0.230,0.392,0.362,0.331,0.193,0.162,south,12.0,No
2017/04/06,07:50,0.382,0.230,0.393,0.362,0.332,0.191,0.163,south,10.6,No
2017/04/06,08:00,0.380,0.229,0.392,0.364,0.330,0.192,0.162,south,11.2,No
2017/04/06,08:10,0.378,0.230,0.393,0.364,0.331,0.191,0.163,south,11.5,No
2017/04/06,08:20,0.381,0.230,0.392,0.361,0.330,0.192,0.162,south,10.1,No
2017/04/06,08:30,0.376,0.230,0.393,0.365,0.330,0.192,0.163,south,10.5,No
2017/04/06,08:40,0.380,0.229,0.392,0.362,0.332,0.192,0.163,south,12.4,No
2017/04/06,08:50,0.376,0.230,0.392,0.363,0.331,0.191,0.162,south,12.5,No
2017/04/06,09:00,0.378,0.229,0.393,0.362,0.331,0.191,0.163,south,13.1,No
2017/04/06,09:10,0.379,0.229,0.390,0.362,0.331,0.191,0.163,south,12.5,No
2017/04/06,09:20,0.379,0.229,0.395,0.363,0.332,0.191,0.163,south,13.4,No
2017/04/06,09:30,0.380,0.231,0.392,0.361,0.330,0.192,0.163,south,11.7,No
2017/04/06,09:40,0.376,0.230,0.393,0.363,0.329,0.192,0.164,south,13.7,No
2017/04/06,09:50,0.379,0.230,0.391,0.361,0.330,0.192,0.163,south,13.4,No
2017/04/06,10:00,0.379,0.229,0.393,0.364,-,0.191,0.163,south,13.6,No
2017/04/06,10:10,0.376,0.230,0.391,0.364,-,0.192,0.163,south,14.4,No
2017/04/06,10:20,0.381,0.230,0.393,0.362,-,0.191,0.162,south,13.3,No
2017/04/06,10:30,0.379,0.230,0.392,0.363,-,0.190,0.162,south,14.1,No
2017/04/06,10:40,0.376,0.230,0.392,0.362,-,0.191,0.164,south,13.2,No
2017/04/06,10:50,0.380,0.229,0.390,0.364,-,0.191,0.163,south,15.7,No
2017/04/06,11:00,0.379,0.230,0.394,0.366,-,0.193,0.163,south,17.0,No
2017/04/06,11:10,0.375,0.231,0.391,0.360,-,0.191,0.162,south,15.7,No
2017/04/06,11:20,0.382,0.230,0.387,0.365,0.332,0.192,0.163,south,16.4,No
2017/04/06,11:30,0.380,0.230,0.392,0.364,0.333,0.191,0.163,south,17.3,No
2017/04/06,11:40,0.376,0.229,0.391,0.362,0.330,0.191,0.163,south,15.5,No
2017/04/06,11:50,0.379,0.231,0.387,0.365,0.332,0.191,0.163,south,16.7,No
2017/04/06,12:00,0.381,0.229,0.392,0.362,0.332,0.191,0.162,south,17.0,No
2017/04/06,12:10,0.377,0.230,0.391,0.364,0.328,0.192,0.164,south,19.4,No
2017/04/06,12:20,0.379,0.231,0.389,0.365,0.332,0.191,0.162,south,17.6,No
2017/04/06,12:30,0.380,0.231,0.392,0.363,0.330,0.191,0.163,south,18.1,No
2017/04/06,12:40,0.378,0.230,0.394,0.364,0.331,0.191,0.165,south,20.4,No
2017/04/06,12:50,0.381,0.229,0.390,0.364,0.333,0.192,0.162,south,20.1,No
2017/04/06,13:00,0.379,0.230,0.391,0.362,0.328,0.191,0.163,south,19.4,No
2017/04/06,13:10,0.379,0.230,0.394,0.365,0.332,0.192,0.162,south,17.6,No
2017/04/06,13:20,0.382,0.230,0.389,0.363,0.330,0.192,0.163,south,18.7,No
2017/04/06,13:30,0.377,0.230,0.393,0.366,0.330,0.191,0.163,south,17.4,No
2017/04/06,13:40,0.382,0.230,0.393,0.363,0.331,0.192,0.162,south,15.5,No
2017/04/06,13:50,0.379,0.230,0.392,0.366,0.330,0.192,0.163,south,12.8,No
2017/04/06,14:00,0.381,0.231,0.394,0.363,0.331,0.191,0.164,south,13.1,No
2017/04/06,14:10,0.379,0.230,0.394,0.367,0.332,0.192,0.162,south,13.1,No
2017/04/06,14:20,0.381,0.230,0.396,0.364,0.331,0.192,-,south,13.4,No
2017/04/06,14:30,0.381,0.231,0.391,0.366,0.331,0.192,-,south,13.7,No
2017/04/06,14:40,0.380,0.230,0.393,0.364,0.333,0.192,-,south,15.2,No
2017/04/06,14:50,0.380,0.231,0.392,0.365,0.329,0.191,-,south,15.4,No
2017/04/06,15:00,0.379,0.231,0.394,0.363,0.333,0.191,-,south,15.6,No
2017/04/06,15:10,0.381,0.231,0.391,0.365,0.330,0.192,-,south,16.6,No
2017/04/06,15:20,0.379,0.230,0.395,0.363,0.332,0.190,-,south-southwest,16.0,No
2017/04/06,15:30,0.382,0.232,0.393,0.366,0.331,0.192,-,south,15.1,No
2017/04/06,15:40,0.380,0.230,0.394,0.363,0.333,0.192,-,south,13.8,No
2017/04/06,15:50,0.381,0.231,0.391,0.366,0.331,0.192,-,south-southwest,13.2,No
2017/04/06,16:00,0.379,0.231,0.393,0.364,0.332,0.191,-,south-southwest,13.8,No
2017/04/06,16:10,0.382,0.232,0.391,0.365,0.330,0.193,-,south-southwest,14.3,No
2017/04/06,16:20,0.379,0.230,0.395,0.364,0.333,0.191,0.165,south-southwest,14.8,No
2017/04/06,16:30,0.383,0.231,0.392,0.366,0.329,0.193,0.164,south-southwest,14.6,No
2017/04/06,16:40,0.379,0.230,0.393,0.364,0.332,0.191,0.164,south-southwest,14.8,No
2017/04/06,16:50,0.381,0.231,0.394,0.364,0.331,0.191,0.164,south-southwest,13.6,No
2017/04/06,17:00,0.380,0.232,0.394,0.365,0.332,0.191,0.163,south-southwest,14.1,No
2017/04/06,17:10,0.381,0.231,0.395,0.364,0.331,0.192,0.163,south-southwest,13.4,No
2017/04/06,17:20,0.380,0.231,0.393,0.367,0.332,0.191,0.163,south-southwest,13.4,No
2017/04/06,17:30,0.381,0.232,0.395,0.365,0.333,0.191,0.165,south-southwest,12.4,No
2017/04/06,17:40,0.380,0.230,0.392,0.365,0.330,0.192,0.162,south-southwest,14.3,No
2017/04/06,17:50,0.381,0.232,0.396,0.365,0.334,0.191,0.164,south-southwest,15.1,No
2017/04/06,18:00,0.380,0.231,0.393,0.367,0.330,0.192,0.164,south,15.1,No
2017/04/06,18:10,0.378,0.232,0.394,0.365,0.334,0.192,0.164,south-southwest,14.4,No
2017/04/06,18:20,0.383,0.231,0.395,0.365,0.331,0.192,0.162,south-southwest,13.6,No
2017/04/06,18:30,0.380,0.231,0.392,0.367,0.334,0.192,0.163,south-southwest,12.3,No
2017/04/06,18:40,0.382,0.231,0.395,0.365,0.331,0.192,0.163,south-southwest,11.8,No
2017/04/06,18:50,0.379,0.231,0.393,0.367,0.331,0.192,0.164,south-southwest,12.0,No
2017/04/06,19:00,0.381,0.231,0.394,0.364,0.332,0.192,0.164,south-southwest,11.5,No
2017/04/06,19:10,0.379,0.232,0.392,0.367,0.334,0.192,0.164,south-southwest,11.2,No
2017/04/06,19:20,0.381,0.232,0.395,0.367,0.332,0.192,0.163,south-southwest,12.1,No
2017/04/06,19:30,0.381,0.231,0.394,0.365,0.331,0.193,0.164,south-southwest,11.4,Yes
2017/04/06,19:40,0.382,0.231,0.395,0.365,0.333,0.192,0.163,south-southwest,11.7,Yes
2017/04/06,19:50,0.380,0.231,0.396,0.366,0.330,0.192,0.165,south-southwest,10.9,Yes
2017/04/06,20:00,0.382,0.232,0.394,0.366,0.332,0.192,0.165,south-southwest,11.0,Yes
2017/04/06,20:10,0.382,0.231,0.396,0.366,0.332,0.194,0.164,south-southwest,10.9,Yes
2017/04/06,20:20,0.379,0.232,0.394,0.369,0.334,0.193,0.165,south-southwest,10.5,Yes
2017/04/06,20:30,0.385,0.232,0.396,0.367,0.333,0.193,0.165,south-southwest,11.5,Yes
2017/04/06,20:40,0.381,0.232,0.394,0.368,0.333,0.193,0.166,south-southwest,11.1,Yes
2017/04/06,20:50,0.384,0.233,0.396,0.367,0.333,0.194,0.165,south-southwest,10.0,Yes
2017/04/06,21:00,0.380,0.232,0.397,0.367,0.332,0.194,0.166,south-southwest,9.5,Yes
2017/04/06,21:10,0.383,0.232,0.395,0.369,0.334,0.194,0.165,south-southwest,9.8,Yes
2017/04/06,21:20,0.380,0.231,0.397,0.367,0.332,0.193,0.165,south,7.7,Yes
2017/04/06,21:30,0.382,0.232,0.395,0.367,0.334,0.194,0.165,south,7.9,Yes
2017/04/06,21:40,0.383,0.232,0.396,0.368,0.334,0.195,0.165,south,8.4,Yes
2017/04/06,21:50,0.383,0.234,0.396,0.368,0.331,0.194,0.166,south-southwest,10.7,Yes
2017/04/06,22:00,0.383,0.235,0.397,0.369,0.335,0.196,0.166,south-southwest,10.6,Yes
2017/04/06,22:10,0.383,0.234,0.397,0.368,0.333,0.195,0.167,south-southwest,10.6,Yes
2017/04/06,22:20,0.382,0.233,0.396,0.367,0.334,0.195,0.167,south-southwest,11.2,Yes
2017/04/06,22:30,0.382,0.232,0.395,0.370,0.334,0.194,0.166,south-southwest,11.8,Yes
2017/04/06,22:40,0.381,0.232,0.395,0.366,0.330,0.194,0.165,south-southwest,12.0,No
2017/04/06,22:50,0.382,0.231,0.394,0.366,0.333,0.193,0.165,south-southwest,11.7,No
2017/04/06,23:00,0.381,0.232,0.394,0.366,0.330,0.193,0.164,south,9.8,No
2017/04/06,23:10,0.380,0.231,0.393,0.366,0.332,0.192,0.165,south-southwest,12.0,No
2017/04/06,23:20,0.381,0.231,0.392,0.368,0.331,0.193,0.163,south-southwest,11.4,No
2017/04/06,23:30,0.378,0.231,0.394,0.365,0.330,0.192,0.164,south-southwest,12.9,No
2017/04/06,23:40,0.381,0.230,0.393,0.366,0.332,0.193,0.163,south-southwest,12.9,Yes
2017/04/06,23:50,0.380,0.229,0.394,0.367,0.330,0.191,0.164,south,11.9,Yes
